Time,TemperatureF,DewpointF,PressureIn,WindDirection,WindDirectionDegrees,WindSpeedMPH,WindSpeedGustMPH,Humidity,HourlyPrecipIn,Conditions,Clouds,dailyrainin,SolarRadiationWatts/m^2,SoftwareType,DateUTC
2013-02-04 00:00:00,15.5,11.8,29.74,NNW,337,0.0,2.0,85,0.00,,,0.00,0.00,VWS V14.00,2013-02-04 05:00:00,
2013-02-04 00:01:00,15.5,11.8,29.74,NNW,337,0.0,2.0,85,0.00,,,0.00,0.00,VWS V14.00,2013-02-04 05:01:00,
2013-02-04 00:02:00,15.5,11.8,29.74,NNW,337,0.0,0.0,85,0.00,,,0.00,0.00,VWS V14.00,2013-02-04 05:02:00,
2013-02-04 00:07:00,15.5,11.8,29.73,NNW,337,0.0,0.0,85,0.00,,,0.00,0.00,VWS V14.00,2013-02-04 05:07:00,
2013-02-04 00:12:00,15.5,11.8,29.74,NNW,337,0.0,0.0,85,0.00,,,0.00,0.00,VWS V14.00,2013-02-04 05:12:00,
2013-02-04 00:17:00,15.5,11.8,29.73,NNW,337,0.0,0.0,85,0.00,,,0.00,0.00,VWS V14.00,2013-02-04 05:17:00,
2013-02-04 00:22:00,15.6,11.9,29.73,NNW,337,0.0,0.0,85,0.00,,,0.00,0.00,VWS V14.00,2013-02-04 05:22:00,
2013-02-04 00:27:00,15.6,11.9,29.73,NNW,337,0.0,0.0,85,0.00,,,0.00,0.00,VWS V14.00,2013-02-04 05:27:00,
2013-02-04 00:32:00,15.7,12.0,29.73,NNW,337,0.0,0.0,85,0.00,,,0.00,0.00,VWS V14.00,2013-02-04 05:32:00,
2013-02-04 00:37:00,15.7,12.0,29.73,NNW,337,0.0,0.0,85,0.00,,,0.00,0.00,VWS V14.00,2013-02-04 05:37:00,
2013-02-04 00:42:00,15.8,12.1,29.73,NNW,337,0.0,0.0,85,0.00,,,0.00,0.00,VWS V14.00,2013-02-04 05:42:00,
2013-02-04 00:47:00,15.9,12.2,29.73,NNW,337,0.0,0.0,85,0.00,,,0.00,0.00,VWS V14.00,2013-02-04 05:47:00,
2013-02-04 00:52:00,16.1,12.7,29.73,NNW,337,0.0,0.0,86,0.00,,,0.00,0.00,VWS V14.00,2013-02-04 05:52:00,
2013-02-04 00:57:00,16.1,12.7,29.73,NNW,337,0.0,0.0,86,0.00,,,0.00,0.00,VWS V14.00,2013-02-04 05:57:00,
2013-02-04 01:02:00,16.2,12.8,29.73,NNW,337,0.0,0.0,86,0.00,,,0.00,0.00,VWS V14.00,2013-02-04 06:02:00,
2013-02-04 01:07:00,16.2,12.8,29.73,NNW,337,0.0,0.0,86,0.00,,,0.00,0.00,VWS V14.00,2013-02-04 06:07:00,
2013-02-04 01:12:00,16.3,12.6,29.73,NNW,337,0.0,0.0,85,0.00,,,0.00,0.00,VWS V14.00,2013-02-04 06:12:00,
2013-02-04 01:17:00,16.3,12.6,29.72,NNW,337,0.0,0.0,85,0.00,,,0.00,0.00,VWS V14.00,2013-02-04 06:17:00,
2013-02-04 01:22:00,16.3,12.6,29.72,NNW,337,0.0,0.0,85,0.00,,,0.00,0.00,VWS V14.00,2013-02-04 06:22:00,
2013-02-04 01:27:00,16.3,12.6,29.72,NNW,337,0.0,0.0,85,0.00,,,0.00,0.00,VWS V14.00,2013-02-04 06:27:00,
2013-02-04 01:32:00,16.2,12.5,29.73,NNW,337,0.0,0.0,85,0.00,,,0.00,0.00,VWS V14.00,2013-02-04 06:32:00,
2013-02-04 01:37:00,16.2,12.5,29.73,NNW,337,0.0,0.0,85,0.00,,,0.00,0.00,VWS V14.00,2013-02-04 06:37:00,
2013-02-04 01:42:00,16.2,12.5,29.72,NNW,337,0.0,0.0,85,0.00,,,0.00,0.00,VWS V14.00,2013-02-04 06:42:00,
2013-02-04 01:47:00,16.2,12.5,29.72,NNW,337,0.0,0.0,85,0.00,,,0.00,0.00,VWS V14.00,2013-02-04 06:47:00,
2013-02-04 01:52:00,16.2,12.8,29.72,NNW,337,0.0,0.0,86,0.00,,,0.00,0.00,VWS V14.00,2013-02-04 06:52:00,
2013-02-04 01:57:00,16.3,12.9,29.72,NNW,337,0.0,0.0,86,0.00,,,0.00,0.00,VWS V14.00,2013-02-04 06:57:00,
2013-02-04 02:02:00,16.3,12.9,29.72,NNW,337,0.0,0.0,86,0.00,,,0.00,0.00,VWS V14.00,2013-02-04 07:02:00,
2013-02-04 02:07:00,16.4,12.9,29.72,NNW,337,0.0,0.0,86,0.00,,,0.00,0.00,VWS V14.00,2013-02-04 07:07:00,
2013-02-04 02:12:00,16.4,12.9,29.72,NNW,337,0.0,0.0,86,0.00,,,0.00,0.00,VWS V14.00,2013-02-04 07:12:00,
2013-02-04 02:17:00,16.3,12.9,29.72,NNW,337,0.0,0.0,86,0.00,,,0.00,0.00,VWS V14.00,2013-02-04 07:17:00,
2013-02-04 02:22:00,16.3,12.9,29.72,NNW,337,0.0,0.0,86,0.00,,,0.00,0.00,VWS V14.00,2013-02-04 07:22:00,
2013-02-04 02:27:00,16.2,12.8,29.72,NNW,337,0.0,0.0,86,0.00,,,0.00,0.00,VWS V14.00,2013-02-04 07:27:00,
2013-02-04 02:32:00,16.1,12.7,29.72,NNW,337,0.0,0.0,86,0.00,,,0.00,0.00,VWS V14.00,2013-02-04 07:32:00,
2013-02-04 02:37:00,16.0,12.6,29.72,NNW,337,0.0,0.0,86,0.00,,,0.00,0.00,VWS V14.00,2013-02-04 07:37:00,
2013-02-04 02:42:00,15.8,12.1,29.72,NNW,337,0.0,1.0,85,0.00,,,0.00,0.00,VWS V14.00,2013-02-04 07:42:00,
2013-02-04 02:47:00,15.6,11.9,29.72,SW,231,0.0,2.0,85,0.00,,,0.00,0.00,VWS V14.00,2013-02-04 07:47:00,
2013-02-04 02:52:00,15.4,11.7,29.72,SW,231,0.0,0.0,85,0.00,,,0.00,0.00,VWS V14.00,2013-02-04 07:52:00,
2013-02-04 02:57:00,15.2,11.5,29.72,SW,231,0.0,0.0,85,0.00,,,0.00,0.00,VWS V14.00,2013-02-04 07:57:00,
2013-02-04 03:02:00,15.1,11.4,29.72,SW,231,0.0,1.0,85,0.00,,,0.00,0.00,VWS V14.00,2013-02-04 08:02:00,
2013-02-04 03:07:00,14.8,11.1,29.72,SW,231,0.0,2.0,85,0.00,,,0.00,0.00,VWS V14.00,2013-02-04 08:07:00,
2013-02-04 03:12:00,14.6,10.9,29.72,NNW,341,0.0,3.0,85,0.00,,,0.00,0.00,VWS V14.00,2013-02-04 08:12:00,
2013-02-04 03:17:00,14.4,10.7,29.72,NNW,333,3.0,5.0,85,0.00,,,0.00,0.00,VWS V14.00,2013-02-04 08:17:00,
2013-02-04 03:22:00,14.3,10.6,29.72,NNW,331,0.0,2.0,85,0.00,,,0.00,0.00,VWS V14.00,2013-02-04 08:22:00,
2013-02-04 03:27:00,14.1,10.7,29.72,NW,311,0.0,2.0,86,0.00,,,0.00,0.00,VWS V14.00,2013-02-04 08:27:00,
2013-02-04 03:32:00,14.0,10.3,29.72,West,279,1.0,4.0,85,0.00,,,0.00,0.00,VWS V14.00,2013-02-04 08:32:00,
2013-02-04 03:37:00,14.0,10.6,29.72,West,264,3.0,5.0,86,0.00,,,0.00,0.00,VWS V14.00,2013-02-04 08:37:00,
2013-02-04 03:42:00,14.1,10.7,29.72,West,262,2.0,2.0,86,0.00,,,0.00,0.00,VWS V14.00,2013-02-04 08:42:00,
2013-02-04 03:47:00,14.3,10.9,29.73,NW,326,5.0,8.0,86,0.00,,,0.00,0.00,VWS V14.00,2013-02-04 08:47:00,
2013-02-04 03:52:00,14.7,11.3,29.73,NW,312,5.0,7.0,86,0.00,,,0.00,0.00,VWS V14.00,2013-02-04 08:52:00,
2013-02-04 03:57:00,15.0,11.6,29.73,NW,321,7.0,7.0,86,0.00,,,0.00,0.00,VWS V14.00,2013-02-04 08:57:00,
2013-02-04 04:02:00,15.4,11.7,29.73,NNW,333,5.0,7.0,85,0.00,,,0.00,0.00,VWS V14.00,2013-02-04 09:02:00,
2013-02-04 04:07:00,15.7,11.7,29.74,NNW,334,5.0,9.0,84,0.00,,,0.00,0.00,VWS V14.00,2013-02-04 09:07:00,
2013-02-04 04:12:00,15.9,11.4,29.74,NW,311,7.0,14.0,82,0.00,,,0.00,0.00,VWS V14.00,2013-02-04 09:12:00,
2013-02-04 04:17:00,16.3,11.5,29.74,NNW,329,3.0,6.0,81,0.00,,,0.00,0.00,VWS V14.00,2013-02-04 09:17:00,
2013-02-04 04:22:00,16.5,11.1,29.74,NW,321,7.0,10.0,79,0.00,,,0.00,0.00,VWS V14.00,2013-02-04 09:22:00,
2013-02-04 04:27:00,16.6,10.7,29.74,NW,313,4.0,10.0,77,0.00,,,0.00,0.00,VWS V14.00,2013-02-04 09:27:00,
2013-02-04 04:32:00,16.8,10.6,29.74,NW,311,1.0,3.0,76,0.00,,,0.00,0.00,VWS V14.00,2013-02-04 09:32:00,
2013-02-04 04:37:00,16.9,10.4,29.74,NW,311,5.0,5.0,75,0.00,,,0.00,0.00,VWS V14.00,2013-02-04 09:37:00,
2013-02-04 04:42:00,16.9,10.1,29.75,NNW,329,3.0,4.0,74,0.00,,,0.00,0.00,VWS V14.00,2013-02-04 09:42:00,
2013-02-04 04:47:00,16.8,9.7,29.75,WNW,282,4.0,4.0,73,0.00,,,0.00,0.00,VWS V14.00,2013-02-04 09:47:00,
2013-02-04 04:52:00,16.8,9.7,29.75,WNW,293,0.0,3.0,73,0.00,,,0.00,0.00,VWS V14.00,2013-02-04 09:52:00,
2013-02-04 04:57:00,16.8,9.4,29.74,NW,315,3.0,7.0,72,0.00,,,0.00,0.00,VWS V14.00,2013-02-04 09:57:00,
2013-02-04 05:02:00,16.7,9.3,29.74,NW,315,0.0,5.0,72,0.00,,,0.00,0.00,VWS V14.00,2013-02-04 10:02:00,
2013-02-04 05:07:00,16.7,8.9,29.75,NW,315,0.0,2.0,71,0.00,,,0.00,0.00,VWS V14.00,2013-02-04 10:07:00,
2013-02-04 05:12:00,16.6,8.9,29.75,NW,315,0.0,0.0,71,0.00,,,0.00,0.00,VWS V14.00,2013-02-04 10:12:00,
2013-02-04 05:17:00,16.6,8.9,29.75,NW,315,0.0,0.0,71,0.00,,,0.00,0.00,VWS V14.00,2013-02-04 10:17:00,
2013-02-04 05:22:00,16.4,8.3,29.75,NE,48,2.0,3.0,70,0.00,,,0.00,0.00,VWS V14.00,2013-02-04 10:22:00,
2013-02-04 05:27:00,16.2,8.1,29.75,NW,308,0.0,0.0,70,0.00,,,0.00,0.00,VWS V14.00,2013-02-04 10:27:00,
2013-02-04 05:32:00,16.1,8.1,29.75,WNW,294,0.0,3.0,70,0.00,,,0.00,0.00,VWS V14.00,2013-02-04 10:32:00,
2013-02-04 05:37:00,15.9,7.9,29.75,WNW,294,0.0,0.0,70,0.00,,,0.00,0.00,VWS V14.00,2013-02-04 10:37:00,
2013-02-04 05:42:00,15.7,7.7,29.75,WNW,294,0.0,3.0,70,0.00,,,0.00,0.00,VWS V14.00,2013-02-04 10:42:00,
2013-02-04 05:47:00,15.4,7.4,29.76,NW,309,9.0,9.0,70,0.00,,,0.00,0.00,VWS V14.00,2013-02-04 10:47:00,
2013-02-04 05:52:00,15.5,7.5,29.76,NNW,333,6.0,8.0,70,0.00,,,0.00,0.00,VWS V14.00,2013-02-04 10:52:00,
2013-02-04 05:57:00,15.8,7.8,29.76,NW,304,0.0,2.0,70,0.00,,,0.00,0.00,VWS V14.00,2013-02-04 10:57:00,
2013-02-04 06:02:00,16.0,8.0,29.76,NW,309,2.0,5.0,70,0.00,,,0.00,0.00,VWS V14.00,2013-02-04 11:02:00,
2013-02-04 06:07:00,16.1,7.7,29.76,West,269,5.0,5.0,69,0.00,,,0.00,0.00,VWS V14.00,2013-02-04 11:07:00,
2013-02-04 06:12:00,16.0,7.6,29.76,WSW,240,5.0,6.0,69,0.00,,,0.00,0.00,VWS V14.00,2013-02-04 11:12:00,
2013-02-04 06:17:00,15.8,7.8,29.77,West,268,0.0,4.0,70,0.00,,,0.00,0.00,VWS V14.00,2013-02-04 11:17:00,
2013-02-04 06:22:00,15.5,7.5,29.77,WSW,253,2.0,2.0,70,0.00,,,0.00,0.00,VWS V14.00,2013-02-04 11:22:00,
2013-02-04 06:27:00,15.3,7.3,29.77,West,269,0.0,3.0,70,0.00,,,0.00,0.00,VWS V14.00,2013-02-04 11:27:00,
2013-02-04 06:32:00,15.0,7.0,29.77,West,269,1.0,4.0,70,0.00,,,0.00,0.00,VWS V14.00,2013-02-04 11:32:00,
2013-02-04 06:37:00,14.7,6.7,29.77,West,269,3.0,3.0,70,0.00,,,0.00,0.00,VWS V14.00,2013-02-04 11:37:00,
2013-02-04 06:42:00,14.4,6.7,29.77,West,269,0.0,2.0,71,0.00,,,0.00,0.00,VWS V14.00,2013-02-04 11:42:00,
2013-02-04 06:47:00,14.1,6.4,29.77,West,269,0.0,2.0,71,0.00,,,0.00,0.00,VWS V14.00,2013-02-04 11:47:00,
2013-02-04 06:52:00,13.9,6.6,29.77,West,269,0.0,0.0,72,0.00,,,0.00,0.00,VWS V14.00,2013-02-04 11:52:00,
2013-02-04 06:57:00,13.7,6.4,29.77,West,269,3.0,3.0,72,0.00,,,0.00,0.00,VWS V14.00,2013-02-04 11:57:00,
2013-02-04 07:02:00,13.5,6.5,29.77,West,269,0.0,2.0,73,0.00,,,0.00,0.00,VWS V14.00,2013-02-04 12:02:00,
2013-02-04 07:07:00,13.2,6.2,29.77,West,269,0.0,0.0,73,0.00,,,0.00,5.00,VWS V14.00,2013-02-04 12:07:00,
2013-02-04 07:12:00,13.0,6.0,29.76,West,269,0.0,0.0,73,0.00,,,0.00,5.00,VWS V14.00,2013-02-04 12:12:00,
2013-02-04 07:17:00,12.8,5.8,29.77,West,269,0.0,0.0,73,0.00,,,0.00,9.00,VWS V14.00,2013-02-04 12:17:00,
2013-02-04 07:22:00,12.5,5.8,29.77,West,269,1.0,2.0,74,0.00,,,0.00,11.00,VWS V14.00,2013-02-04 12:22:00,
2013-02-04 07:27:00,12.2,5.5,29.77,West,269,1.0,3.0,74,0.00,,,0.00,16.00,VWS V14.00,2013-02-04 12:27:00,
2013-02-04 07:32:00,12.0,5.6,29.77,NW,306,0.0,4.0,75,0.00,,,0.00,21.00,VWS V14.00,2013-02-04 12:32:00,
2013-02-04 07:37:00,11.8,5.7,29.77,NW,306,0.0,1.0,76,0.00,,,0.00,30.00,VWS V14.00,2013-02-04 12:37:00,
2013-02-04 07:42:00,11.8,6.0,29.78,West,262,1.0,3.0,77,0.00,,,0.00,40.00,VWS V14.00,2013-02-04 12:42:00,
2013-02-04 07:47:00,11.9,6.4,29.78,West,265,2.0,4.0,78,0.00,,,0.00,33.00,VWS V14.00,2013-02-04 12:47:00,
2013-02-04 07:52:00,12.2,6.7,29.78,West,261,6.0,6.0,78,0.00,,,0.00,54.00,VWS V14.00,2013-02-04 12:52:00,
2013-02-04 07:57:00,12.7,7.4,29.78,WSW,240,4.0,8.0,79,0.00,,,0.00,63.00,VWS V14.00,2013-02-04 12:57:00,
2013-02-04 08:02:00,13.3,8.0,29.78,West,263,5.0,7.0,79,0.00,,,0.00,37.00,VWS V14.00,2013-02-04 13:02:00,
2013-02-04 08:07:00,13.9,8.9,29.78,NW,309,2.0,5.0,80,0.00,,,0.00,40.00,VWS V14.00,2013-02-04 13:07:00,
2013-02-04 08:12:00,14.4,9.1,29.78,SW,229,7.0,10.0,79,0.00,,,0.00,44.00,VWS V14.00,2013-02-04 13:12:00,
2013-02-04 08:17:00,14.9,9.6,29.78,West,268,2.0,8.0,79,0.00,,,0.00,44.00,VWS V14.00,2013-02-04 13:17:00,
2013-02-04 08:22:00,15.2,9.9,29.78,WSW,246,3.0,8.0,79,0.00,,,0.00,42.00,VWS V14.00,2013-02-04 13:22:00,
2013-02-04 08:27:00,15.5,9.9,29.78,WNW,287,0.0,2.0,78,0.00,,,0.00,44.00,VWS V14.00,2013-02-04 13:27:00,
2013-02-04 08:32:00,15.8,10.2,29.78,West,261,0.0,4.0,78,0.00,,,0.00,54.00,VWS V14.00,2013-02-04 13:32:00,
2013-02-04 08:37:00,15.9,10.0,29.78,West,267,1.0,7.0,77,0.00,,,0.00,51.00,VWS V14.00,2013-02-04 13:37:00,
2013-02-04 08:42:00,16.1,10.2,29.78,NW,325,2.0,4.0,77,0.00,,,0.00,56.00,VWS V14.00,2013-02-04 13:42:00,
2013-02-04 08:47:00,16.2,10.3,29.78,NW,325,0.0,0.0,77,0.00,,,0.00,70.00,VWS V14.00,2013-02-04 13:47:00,
2013-02-04 08:52:00,16.3,10.4,29.78,West,261,0.0,1.0,77,0.00,,,0.00,63.00,VWS V14.00,2013-02-04 13:52:00,
2013-02-04 08:57:00,16.4,10.5,29.78,West,261,0.0,1.0,77,0.00,,,0.00,76.00,VWS V14.00,2013-02-04 13:57:00,
2013-02-04 09:02:00,16.5,10.3,29.77,West,261,2.0,3.0,76,0.00,,,0.00,79.00,VWS V14.00,2013-02-04 14:02:00,
2013-02-04 09:07:00,16.6,10.4,29.77,West,261,0.0,1.0,76,0.00,,,0.00,114.00,VWS V14.00,2013-02-04 14:07:00,
2013-02-04 09:12:00,16.8,10.6,29.77,West,261,0.0,0.0,76,0.00,,,0.00,113.00,VWS V14.00,2013-02-04 14:12:00,
2013-02-04 09:17:00,17.0,10.8,29.77,West,261,0.0,1.0,76,0.00,,,0.00,111.00,VWS V14.00,2013-02-04 14:17:00,
2013-02-04 09:22:00,17.3,11.1,29.77,SSW,198,1.0,5.0,76,0.00,,,0.00,121.00,VWS V14.00,2013-02-04 14:22:00,
2013-02-04 09:27:00,17.6,11.3,29.76,WSW,238,3.0,8.0,76,0.00,,,0.00,121.00,VWS V14.00,2013-02-04 14:27:00,
2013-02-04 09:32:00,18.0,11.7,29.76,SSW,200,4.0,7.0,76,0.00,,,0.00,163.00,VWS V14.00,2013-02-04 14:32:00,
2013-02-04 09:37:00,18.4,12.1,29.76,SSW,205,0.0,3.0,76,0.00,,,0.00,295.00,VWS V14.00,2013-02-04 14:37:00,
2013-02-04 09:42:00,18.8,12.5,29.75,SW,236,2.0,5.0,76,0.00,,,0.00,385.00,VWS V14.00,2013-02-04 14:42:00,
2013-02-04 09:47:00,19.1,12.5,29.75,WSW,245,0.0,3.0,75,0.00,,,0.00,174.00,VWS V14.00,2013-02-04 14:47:00,
2013-02-04 09:52:00,19.4,12.2,29.75,SW,219,0.0,2.0,73,0.00,,,0.00,450.00,VWS V14.00,2013-02-04 14:52:00,
2013-02-04 09:57:00,19.8,11.6,29.75,NW,323,7.0,8.0,70,0.00,,,0.00,441.00,VWS V14.00,2013-02-04 14:57:00,
2013-02-04 10:02:00,20.2,11.7,29.75,NW,309,9.0,13.0,69,0.00,,,0.00,452.00,VWS V14.00,2013-02-04 15:02:00,
2013-02-04 10:07:00,20.6,10.4,29.75,NW,322,8.0,15.0,64,0.00,,,0.00,425.00,VWS V14.00,2013-02-04 15:07:00,
2013-02-04 10:12:00,20.8,9.5,29.75,West,269,5.0,9.0,61,0.00,,,0.00,469.00,VWS V14.00,2013-02-04 15:12:00,
2013-02-04 10:17:00,21.0,8.6,29.75,NW,325,6.0,6.0,58,0.00,,,0.00,503.00,VWS V14.00,2013-02-04 15:17:00,
2013-02-04 10:22:00,21.2,9.1,29.75,NNE,31,3.0,4.0,59,0.00,,,0.00,483.00,VWS V14.00,2013-02-04 15:22:00,
2013-02-04 10:27:00,21.2,10.2,29.75,NE,36,2.0,8.0,62,0.00,,,0.00,471.00,VWS V14.00,2013-02-04 15:27:00,
2013-02-04 10:32:00,21.1,8.3,29.75,NNE,14,1.0,6.0,57,0.00,,,0.00,459.00,VWS V14.00,2013-02-04 15:32:00,
2013-02-04 10:37:00,21.2,6.8,29.75,NW,313,10.0,10.0,53,0.00,,,0.00,468.00,VWS V14.00,2013-02-04 15:37:00,
2013-02-04 10:42:00,21.4,5.7,29.75,NW,321,0.0,2.0,50,0.00,,,0.00,469.00,VWS V14.00,2013-02-04 15:42:00,
2013-02-04 10:47:00,21.7,5.1,29.75,WSW,257,11.0,11.0,48,0.00,,,0.00,478.00,VWS V14.00,2013-02-04 15:47:00,
2013-02-04 10:52:00,21.8,2.8,29.75,NW,312,2.0,8.0,43,0.00,,,0.00,482.00,VWS V14.00,2013-02-04 15:52:00,
2013-02-04 10:57:00,21.9,2.3,29.75,NNW,334,1.0,12.0,42,0.00,,,0.00,485.00,VWS V14.00,2013-02-04 15:57:00,
2013-02-04 11:02:00,21.9,1.3,29.74,North,355,9.0,9.0,40,0.00,,,0.00,487.00,VWS V14.00,2013-02-04 16:02:00,
2013-02-04 11:07:00,22.0,1.4,29.75,WNW,295,10.0,12.0,40,0.00,,,0.00,492.00,VWS V14.00,2013-02-04 16:07:00,
2013-02-04 11:12:00,22.1,1.5,29.75,North,355,8.0,10.0,40,0.00,,,0.00,497.00,VWS V14.00,2013-02-04 16:12:00,
2013-02-04 11:17:00,22.3,0.6,29.75,West,278,6.0,14.0,38,0.00,,,0.00,504.00,VWS V14.00,2013-02-04 16:17:00,
2013-02-04 11:22:00,22.3,0.0,29.74,NNW,343,9.0,12.0,37,0.00,,,0.00,497.00,VWS V14.00,2013-02-04 16:22:00,
2013-02-04 11:27:00,22.5,0.2,29.74,WNW,301,3.0,16.0,37,0.00,,,0.00,512.00,VWS V14.00,2013-02-04 16:27:00,
2013-02-04 11:32:00,22.7,0.3,29.73,NW,321,14.0,16.0,37,0.00,,,0.00,515.00,VWS V14.00,2013-02-04 16:32:00,
2013-02-04 11:37:00,23.0,0.0,29.73,NW,313,7.0,11.0,36,0.00,,,0.00,520.00,VWS V14.00,2013-02-04 16:37:00,
2013-02-04 11:42:00,23.3,0.3,29.73,NNW,327,8.0,13.0,36,0.00,,,0.00,520.00,VWS V14.00,2013-02-04 16:42:00,
2013-02-04 11:47:00,23.4,1.0,29.73,NW,321,3.0,11.0,37,0.00,,,0.00,524.00,VWS V14.00,2013-02-04 16:47:00,
2013-02-04 11:52:00,23.8,0.2,29.73,West,277,6.0,18.0,35,0.00,,,0.00,526.00,VWS V14.00,2013-02-04 16:52:00,
2013-02-04 11:57:00,23.9,-1.0,29.73,NW,322,9.0,12.0,33,0.00,,,0.00,527.00,VWS V14.00,2013-02-04 16:57:00,
2013-02-04 12:02:00,23.8,-0.5,29.73,NW,315,8.0,16.0,34,0.00,,,0.00,529.00,VWS V14.00,2013-02-04 17:02:00,
2013-02-04 12:07:00,23.5,-1.4,29.73,NW,320,6.0,7.0,33,0.00,,,0.00,531.00,VWS V14.00,2013-02-04 17:07:00,
2013-02-04 12:12:00,23.9,-0.4,29.73,WNW,299,5.0,12.0,34,0.00,,,0.00,533.00,VWS V14.00,2013-02-04 17:12:00,
2013-02-04 12:17:00,24.2,-0.1,29.73,NW,323,7.0,13.0,34,0.00,,,0.00,513.00,VWS V14.00,2013-02-04 17:17:00,
2013-02-04 12:22:00,24.5,-0.5,29.73,NW,309,4.0,14.0,33,0.00,,,0.00,533.00,VWS V14.00,2013-02-04 17:22:00,
2013-02-04 12:27:00,24.7,-0.3,29.72,NNW,340,4.0,9.0,33,0.00,,,0.00,531.00,VWS V14.00,2013-02-04 17:27:00,
2013-02-04 12:32:00,24.9,-0.1,29.73,NW,326,13.0,17.0,33,0.00,,,0.00,531.00,VWS V14.00,2013-02-04 17:32:00,
2013-02-04 12:37:00,24.9,-1.4,29.73,West,277,3.0,15.0,31,0.00,,,0.00,531.00,VWS V14.00,2013-02-04 17:37:00,
2013-02-04 12:42:00,24.9,-0.8,29.73,West,266,10.0,13.0,32,0.00,,,0.00,522.00,VWS V14.00,2013-02-04 17:42:00,
2013-02-04 12:47:00,24.6,-1.0,29.73,West,270,3.0,11.0,32,0.00,,,0.00,527.00,VWS V14.00,2013-02-04 17:47:00,
2013-02-04 12:52:00,24.5,-1.8,29.73,WNW,284,9.0,12.0,31,0.00,,,0.00,536.00,VWS V14.00,2013-02-04 17:52:00,
2013-02-04 12:57:00,24.5,-1.1,29.73,NNW,332,8.0,9.0,32,0.00,,,0.00,522.00,VWS V14.00,2013-02-04 17:57:00,
2013-02-04 13:02:00,24.7,1.0,29.73,West,269,12.0,15.0,35,0.00,,,0.00,520.00,VWS V14.00,2013-02-04 18:02:00,
2013-02-04 13:07:00,24.9,0.5,29.73,WNW,296,5.0,7.0,34,0.00,,,0.00,527.00,VWS V14.00,2013-02-04 18:07:00,
2013-02-04 13:12:00,25.0,0.0,29.72,West,275,10.0,18.0,33,0.00,,,0.00,508.00,VWS V14.00,2013-02-04 18:12:00,
2013-02-04 13:17:00,25.0,0.0,29.73,NW,319,9.0,15.0,33,0.00,,,0.00,504.00,VWS V14.00,2013-02-04 18:17:00,
2013-02-04 13:22:00,24.6,-0.4,29.73,WNW,296,18.0,18.0,33,0.00,,,0.00,501.00,VWS V14.00,2013-02-04 18:22:00,
2013-02-04 13:27:00,24.4,-0.6,29.73,WNW,284,6.0,15.0,33,0.00,,,0.00,494.00,VWS V14.00,2013-02-04 18:27:00,
2013-02-04 13:32:00,24.2,-0.1,29.72,NW,309,10.0,17.0,34,0.00,,,0.00,487.00,VWS V14.00,2013-02-04 18:32:00,
2013-02-04 13:37:00,24.2,-0.1,29.73,West,273,8.0,16.0,34,0.00,,,0.00,482.00,VWS V14.00,2013-02-04 18:37:00,
2013-02-04 13:42:00,24.2,-0.7,29.73,NW,316,11.0,17.0,33,0.00,,,0.00,475.00,VWS V14.00,2013-02-04 18:42:00,
2013-02-04 13:47:00,24.1,-0.2,29.73,NW,324,11.0,14.0,34,0.00,,,0.00,466.00,VWS V14.00,2013-02-04 18:47:00,
2013-02-04 13:52:00,24.3,0.0,29.73,NW,325,10.0,14.0,34,0.00,,,0.00,461.00,VWS V14.00,2013-02-04 18:52:00,
2013-02-04 13:57:00,24.4,-0.6,29.73,West,271,5.0,18.0,33,0.00,,,0.00,452.00,VWS V14.00,2013-02-04 18:57:00,
2013-02-04 14:02:00,24.3,-0.6,29.73,WNW,303,9.0,15.0,33,0.00,,,0.00,445.00,VWS V14.00,2013-02-04 19:02:00,
2013-02-04 14:07:00,24.3,-0.6,29.74,West,275,11.0,20.0,33,0.00,,,0.00,438.00,VWS V14.00,2013-02-04 19:07:00,
2013-02-04 14:12:00,24.0,-0.9,29.73,West,270,6.0,20.0,33,0.00,,,0.00,427.00,VWS V14.00,2013-02-04 19:12:00,
2013-02-04 14:17:00,23.8,-0.5,29.74,West,269,18.0,18.0,34,0.00,,,0.00,420.00,VWS V14.00,2013-02-04 19:17:00,
2013-02-04 14:22:00,23.6,-0.6,29.74,West,263,13.0,15.0,34,0.00,,,0.00,410.00,VWS V14.00,2013-02-04 19:22:00,
2013-02-04 14:27:00,23.5,-0.7,29.74,WSW,254,8.0,20.0,34,0.00,,,0.00,401.00,VWS V14.00,2013-02-04 19:27:00,
2013-02-04 14:32:00,23.3,-0.9,29.74,WNW,288,14.0,20.0,34,0.00,,,0.00,394.00,VWS V14.00,2013-02-04 19:32:00,
2013-02-04 14:37:00,23.1,-0.5,29.74,NW,304,6.0,22.0,35,0.00,,,0.00,381.00,VWS V14.00,2013-02-04 19:37:00,
2013-02-04 14:42:00,22.9,-0.6,29.75,West,281,15.0,21.0,35,0.00,,,0.00,374.00,VWS V14.00,2013-02-04 19:42:00,
2013-02-04 14:47:00,22.8,-0.1,29.75,WNW,301,12.0,23.0,36,0.00,,,0.00,362.00,VWS V14.00,2013-02-04 19:47:00,
2013-02-04 14:52:00,22.9,-0.6,29.75,WNW,294,7.0,17.0,35,0.00,,,0.00,346.00,VWS V14.00,2013-02-04 19:52:00,
2013-02-04 14:57:00,22.7,-0.8,29.75,NW,311,22.0,22.0,35,0.00,,,0.00,334.00,VWS V14.00,2013-02-04 19:57:00,
2013-02-04 15:02:00,22.2,-1.3,29.76,NW,311,11.0,21.0,35,0.00,,,0.00,330.00,VWS V14.00,2013-02-04 20:02:00,
2013-02-04 15:07:00,22.0,-1.5,29.76,West,267,9.0,15.0,35,0.00,,,0.00,318.00,VWS V14.00,2013-02-04 20:07:00,
2013-02-04 15:12:00,22.0,-0.9,29.75,NW,305,8.0,13.0,36,0.00,,,0.00,315.00,VWS V14.00,2013-02-04 20:12:00,
2013-02-04 15:17:00,22.0,-0.9,29.76,West,274,6.0,23.0,36,0.00,,,0.00,241.00,VWS V14.00,2013-02-04 20:17:00,
2013-02-04 15:22:00,21.7,-1.1,29.76,NW,313,11.0,12.0,36,0.00,,,0.00,260.00,VWS V14.00,2013-02-04 20:22:00,
2013-02-04 15:27:00,21.6,-1.2,29.76,NW,309,10.0,20.0,36,0.00,,,0.00,265.00,VWS V14.00,2013-02-04 20:27:00,
2013-02-04 15:32:00,21.4,-0.8,29.76,NW,309,5.0,14.0,37,0.00,,,0.00,234.00,VWS V14.00,2013-02-04 20:32:00,
2013-02-04 15:37:00,21.4,-0.2,29.76,NNW,346,6.0,11.0,38,0.00,,,0.00,188.00,VWS V14.00,2013-02-04 20:37:00,
2013-02-04 15:42:00,21.4,-0.8,29.77,NNW,331,13.0,24.0,37,0.00,,,0.00,111.00,VWS V14.00,2013-02-04 20:42:00,
2013-02-04 15:47:00,21.1,-1.7,29.77,NW,313,7.0,11.0,36,0.00,,,0.00,116.00,VWS V14.00,2013-02-04 20:47:00,
2013-02-04 15:52:00,20.8,-1.4,29.77,NW,309,15.0,15.0,37,0.00,,,0.00,100.00,VWS V14.00,2013-02-04 20:52:00,
2013-02-04 15:57:00,20.6,-1.0,29.77,WSW,258,5.0,9.0,38,0.00,,,0.00,93.00,VWS V14.00,2013-02-04 20:57:00,
2013-02-04 16:02:00,20.5,-1.1,29.77,West,279,0.0,6.0,38,0.00,,,0.00,39.00,VWS V14.00,2013-02-04 21:02:00,
2013-02-04 16:07:00,20.5,-1.1,29.77,WSW,241,4.0,5.0,38,0.00,,,0.00,54.00,VWS V14.00,2013-02-04 21:07:00,
2013-02-04 16:12:00,20.4,-0.6,29.78,NW,315,2.0,9.0,39,0.00,,,0.00,32.00,VWS V14.00,2013-02-04 21:12:00,
2013-02-04 16:17:00,20.2,-0.8,29.77,NW,319,4.0,10.0,39,0.00,,,0.00,28.00,VWS V14.00,2013-02-04 21:17:00,
2013-02-04 16:22:00,20.0,-1.5,29.77,West,261,11.0,19.0,38,0.00,,,0.00,26.00,VWS V14.00,2013-02-04 21:22:00,
2013-02-04 16:27:00,19.8,-1.1,29.78,WSW,252,4.0,4.0,39,0.00,,,0.00,23.00,VWS V14.00,2013-02-04 21:27:00,
2013-02-04 16:32:00,19.6,-1.3,29.78,West,269,0.0,2.0,39,0.00,,,0.00,23.00,VWS V14.00,2013-02-04 21:32:00,
2013-02-04 16:37:00,19.4,-1.0,29.78,NW,315,4.0,9.0,40,0.00,,,0.00,19.00,VWS V14.00,2013-02-04 21:37:00,
2013-02-04 16:42:00,19.3,-1.6,29.78,WNW,290,3.0,3.0,39,0.00,,,0.00,18.00,VWS V14.00,2013-02-04 21:42:00,
2013-02-04 16:47:00,19.0,-1.3,29.78,WNW,288,8.0,13.0,40,0.00,,,0.00,14.00,VWS V14.00,2013-02-04 21:47:00,
2013-02-04 16:52:00,18.8,-1.0,29.78,NW,317,2.0,9.0,41,0.00,,,0.00,12.00,VWS V14.00,2013-02-04 21:52:00,
2013-02-04 16:57:00,18.6,-1.2,29.79,West,263,4.0,5.0,41,0.00,,,0.00,11.00,VWS V14.00,2013-02-04 21:57:00,
2013-02-04 17:02:00,18.4,-1.4,29.79,West,279,4.0,14.0,41,0.00,,,0.00,7.00,VWS V14.00,2013-02-04 22:02:00,
2013-02-04 17:07:00,18.2,-1.5,29.79,North,355,3.0,3.0,41,0.00,,,0.00,7.00,VWS V14.00,2013-02-04 22:07:00,
2013-02-04 17:12:00,18.1,-1.6,29.80,North,355,3.0,4.0,41,0.00,,,0.00,5.00,VWS V14.00,2013-02-04 22:12:00,
2013-02-04 17:17:00,17.9,-1.3,29.80,NW,321,0.0,4.0,42,0.00,,,0.00,0.00,VWS V14.00,2013-02-04 22:17:00,
2013-02-04 17:22:00,17.8,-1.9,29.80,NW,321,0.0,0.0,41,0.00,,,0.00,0.00,VWS V14.00,2013-02-04 22:22:00,
2013-02-04 17:27:00,17.7,-1.5,29.80,NW,321,0.0,0.0,42,0.00,,,0.00,0.00,VWS V14.00,2013-02-04 22:27:00,
2013-02-04 17:32:00,17.5,-1.2,29.80,NW,321,0.0,0.0,43,0.00,,,0.00,0.00,VWS V14.00,2013-02-04 22:32:00,
2013-02-04 17:37:00,17.4,-1.3,29.80,NW,321,0.0,0.0,43,0.00,,,0.00,0.00,VWS V14.00,2013-02-04 22:37:00,
2013-02-04 17:42:00,17.1,-1.5,29.80,NW,321,0.0,0.0,43,0.00,,,0.00,0.00,VWS V14.00,2013-02-04 22:42:00,
2013-02-04 17:47:00,17.0,-1.1,29.81,NW,321,0.0,0.0,44,0.00,,,0.00,0.00,VWS V14.00,2013-02-04 22:47:00,
2013-02-04 17:52:00,16.7,-1.4,29.81,WSW,257,0.0,0.0,44,0.00,,,0.00,0.00,VWS V14.00,2013-02-04 22:52:00,
2013-02-04 17:57:00,16.4,-1.2,29.81,WSW,257,0.0,0.0,45,0.00,,,0.00,0.00,VWS V14.00,2013-02-04 22:57:00,
2013-02-04 18:02:00,16.1,-1.5,29.81,WSW,257,0.0,1.0,45,0.00,,,0.00,0.00,VWS V14.00,2013-02-04 23:02:00,
2013-02-04 18:07:00,15.9,-1.2,29.81,WSW,257,0.0,0.0,46,0.00,,,0.00,0.00,VWS V14.00,2013-02-04 23:07:00,
2013-02-04 18:12:00,15.7,-0.9,29.81,WSW,258,0.0,0.0,47,0.00,,,0.00,0.00,VWS V14.00,2013-02-04 23:12:00,
2013-02-04 18:17:00,15.4,-1.2,29.82,WSW,258,0.0,2.0,47,0.00,,,0.00,0.00,VWS V14.00,2013-02-04 23:17:00,
2013-02-04 18:22:00,15.3,-1.3,29.82,WSW,258,0.0,0.0,47,0.00,,,0.00,0.00,VWS V14.00,2013-02-04 23:22:00,
2013-02-04 18:27:00,15.1,-1.0,29.82,WSW,258,0.0,0.0,48,0.00,,,0.00,0.00,VWS V14.00,2013-02-04 23:27:00,
2013-02-04 18:32:00,14.9,-0.8,29.83,WSW,258,0.0,0.0,49,0.00,,,0.00,0.00,VWS V14.00,2013-02-04 23:32:00,
2013-02-04 18:37:00,14.8,-1.3,29.83,WSW,258,0.0,0.0,48,0.00,,,0.00,0.00,VWS V14.00,2013-02-04 23:37:00,
2013-02-04 18:42:00,14.6,-1.1,29.83,WSW,258,0.0,0.0,49,0.00,,,0.00,0.00,VWS V14.00,2013-02-04 23:42:00,
2013-02-04 18:47:00,14.4,-0.8,29.83,WSW,258,0.0,1.0,50,0.00,,,0.00,0.00,VWS V14.00,2013-02-04 23:47:00,
2013-02-04 18:52:00,14.2,-0.2,29.83,WSW,258,0.0,0.0,52,0.00,,,0.00,0.00,VWS V14.00,2013-02-04 23:52:00,
2013-02-04 18:57:00,14.1,-0.3,29.83,WSW,258,0.0,0.0,52,0.00,,,0.00,0.00,VWS V14.00,2013-02-04 23:57:00,
2013-02-04 19:02:00,13.8,-1.0,29.84,WSW,258,0.0,0.0,51,0.00,,,0.00,0.00,VWS V14.00,2013-02-05 00:02:00,
2013-02-04 19:07:00,13.6,-1.2,29.84,West,262,0.0,2.0,51,0.00,,,0.00,0.00,VWS V14.00,2013-02-05 00:07:00,
2013-02-04 19:12:00,13.3,-1.9,29.84,West,262,0.0,0.0,50,0.00,,,0.00,0.00,VWS V14.00,2013-02-05 00:12:00,
2013-02-04 19:17:00,13.2,-1.5,29.84,West,262,0.0,0.0,51,0.00,,,0.00,0.00,VWS V14.00,2013-02-05 00:17:00,
2013-02-04 19:22:00,13.1,-1.2,29.84,SW,230,0.0,0.0,52,0.00,,,0.00,0.00,VWS V14.00,2013-02-05 00:22:00,
2013-02-04 19:27:00,13.1,-0.8,29.84,SW,230,0.0,0.0,53,0.00,,,0.00,0.00,VWS V14.00,2013-02-05 00:27:00,
2013-02-04 19:32:00,13.0,-0.9,29.84,SW,230,0.0,0.0,53,0.00,,,0.00,0.00,VWS V14.00,2013-02-05 00:32:00,
2013-02-04 19:37:00,12.9,-1.0,29.85,SW,230,0.0,0.0,53,0.00,,,0.00,0.00,VWS V14.00,2013-02-05 00:37:00,
2013-02-04 19:42:00,12.7,-0.4,29.85,SW,230,1.0,2.0,55,0.00,,,0.00,0.00,VWS V14.00,2013-02-05 00:42:00,
2013-02-04 19:47:00,12.5,-0.6,29.84,SW,230,0.0,0.0,55,0.00,,,0.00,0.00,VWS V14.00,2013-02-05 00:47:00,
2013-02-04 19:52:00,12.2,-0.1,29.85,SW,230,0.0,0.0,57,0.00,,,0.00,0.00,VWS V14.00,2013-02-05 00:52:00,
2013-02-04 19:57:00,12.0,-0.3,29.85,SW,230,0.0,0.0,57,0.00,,,0.00,0.00,VWS V14.00,2013-02-05 00:57:00,
2013-02-04 20:02:00,11.7,-0.6,29.85,SW,230,0.0,0.0,57,0.00,,,0.00,0.00,VWS V14.00,2013-02-05 01:02:00,
2013-02-04 20:07:00,11.4,-0.5,29.85,SW,230,0.0,1.0,58,0.00,,,0.00,0.00,VWS V14.00,2013-02-05 01:07:00,
2013-02-04 20:12:00,11.1,-0.8,29.85,SW,230,0.0,0.0,58,0.00,,,0.00,0.00,VWS V14.00,2013-02-05 01:12:00,
2013-02-04 20:17:00,10.8,-1.1,29.85,SW,230,2.0,2.0,58,0.00,,,0.00,0.00,VWS V14.00,2013-02-05 01:17:00,
2013-02-04 20:22:00,10.4,-1.1,29.86,NW,309,1.0,4.0,59,0.00,,,0.00,0.00,VWS V14.00,2013-02-05 01:22:00,
2013-02-04 20:27:00,10.1,-1.0,29.85,NW,309,0.0,2.0,60,0.00,,,0.00,0.00,VWS V14.00,2013-02-05 01:27:00,
2013-02-04 20:32:00,9.8,-0.9,29.86,West,260,3.0,3.0,61,0.00,,,0.00,0.00,VWS V14.00,2013-02-05 01:32:00,
2013-02-04 20:37:00,9.7,-1.0,29.86,WSW,242,0.0,0.0,61,0.00,,,0.00,0.00,VWS V14.00,2013-02-05 01:37:00,
2013-02-04 20:42:00,9.6,-0.8,29.86,West,263,0.0,2.0,62,0.00,,,0.00,0.00,VWS V14.00,2013-02-05 01:42:00,
2013-02-04 20:47:00,9.6,-0.4,29.86,NNW,339,2.0,3.0,63,0.00,,,0.00,0.00,VWS V14.00,2013-02-05 01:47:00,
2013-02-04 20:52:00,9.5,-0.5,29.86,NNW,344,0.0,0.0,63,0.00,,,0.00,0.00,VWS V14.00,2013-02-05 01:52:00,
2013-02-04 20:57:00,9.4,-0.6,29.86,WNW,288,0.0,1.0,63,0.00,,,0.00,0.00,VWS V14.00,2013-02-05 01:57:00,
2013-02-04 21:02:00,9.2,-0.5,29.86,WNW,288,0.0,2.0,64,0.00,,,0.00,0.00,VWS V14.00,2013-02-05 02:02:00,
2013-02-04 21:07:00,9.1,-0.6,29.86,North,350,2.0,3.0,64,0.00,,,0.00,0.00,VWS V14.00,2013-02-05 02:07:00,
2013-02-04 21:12:00,8.9,-0.8,29.87,NNW,329,3.0,5.0,64,0.00,,,0.00,0.00,VWS V14.00,2013-02-05 02:12:00,
2013-02-04 21:17:00,8.8,-0.9,29.87,NNW,329,0.0,2.0,64,0.00,,,0.00,0.00,VWS V14.00,2013-02-05 02:17:00,
2013-02-04 21:22:00,8.8,-0.9,29.86,NNW,329,0.0,0.0,64,0.00,,,0.00,0.00,VWS V14.00,2013-02-05 02:22:00,
2013-02-04 21:27:00,8.7,-0.6,29.87,NNW,329,0.0,0.0,65,0.00,,,0.00,0.00,VWS V14.00,2013-02-05 02:27:00,
2013-02-04 21:32:00,8.7,-0.6,29.87,NNW,329,0.0,0.0,65,0.00,,,0.00,0.00,VWS V14.00,2013-02-05 02:32:00,
2013-02-04 21:37:00,8.6,-0.7,29.87,NNW,329,0.0,0.0,65,0.00,,,0.00,0.00,VWS V14.00,2013-02-05 02:37:00,
2013-02-04 21:42:00,8.4,-0.9,29.87,NNW,329,2.0,3.0,65,0.00,,,0.00,0.00,VWS V14.00,2013-02-05 02:42:00,
2013-02-04 21:47:00,8.2,-1.1,29.87,NNW,329,0.0,0.0,65,0.00,,,0.00,0.00,VWS V14.00,2013-02-05 02:47:00,
2013-02-04 21:52:00,8.0,-1.0,29.87,NNW,329,0.0,0.0,66,0.00,,,0.00,0.00,VWS V14.00,2013-02-05 02:52:00,
2013-02-04 21:57:00,7.8,-1.2,29.87,NNW,329,0.0,0.0,66,0.00,,,0.00,0.00,VWS V14.00,2013-02-05 02:57:00,
2013-02-04 22:02:00,7.6,-1.4,29.87,NNW,329,2.0,2.0,66,0.00,,,0.00,0.00,VWS V14.00,2013-02-05 03:02:00,
2013-02-04 22:07:00,7.3,-1.3,29.87,West,271,1.0,4.0,67,0.00,,,0.00,0.00,VWS V14.00,2013-02-05 03:07:00,
2013-02-04 22:12:00,7.1,-1.2,29.87,West,273,4.0,5.0,68,0.00,,,0.00,0.00,VWS V14.00,2013-02-05 03:12:00,
2013-02-04 22:17:00,7.1,-0.9,29.87,West,270,1.0,1.0,69,0.00,,,0.00,0.00,VWS V14.00,2013-02-05 03:17:00,
2013-02-04 22:22:00,7.1,-0.9,29.88,West,270,0.0,2.0,69,0.00,,,0.00,0.00,VWS V14.00,2013-02-05 03:22:00,
2013-02-04 22:27:00,7.1,-0.9,29.88,West,275,0.0,2.0,69,0.00,,,0.00,0.00,VWS V14.00,2013-02-05 03:27:00,
2013-02-04 22:32:00,7.0,-1.0,29.88,West,281,2.0,4.0,69,0.00,,,0.00,0.00,VWS V14.00,2013-02-05 03:32:00,
2013-02-04 22:37:00,6.8,-1.2,29.88,WNW,296,4.0,4.0,69,0.00,,,0.00,0.00,VWS V14.00,2013-02-05 03:37:00,
2013-02-04 22:42:00,6.9,-1.1,29.89,NW,315,0.0,5.0,69,0.00,,,0.00,0.00,VWS V14.00,2013-02-05 03:42:00,
2013-02-04 22:47:00,6.9,-0.8,29.88,WNW,282,1.0,2.0,70,0.00,,,0.00,0.00,VWS V14.00,2013-02-05 03:47:00,
2013-02-04 22:52:00,7.0,-0.7,29.88,WNW,292,0.0,0.0,70,0.00,,,0.00,0.00,VWS V14.00,2013-02-05 03:52:00,
2013-02-04 22:57:00,7.1,-0.6,29.89,WNW,298,2.0,4.0,70,0.00,,,0.00,0.00,VWS V14.00,2013-02-05 03:57:00,
2013-02-04 23:02:00,7.1,-0.6,29.89,WNW,298,2.0,3.0,70,0.00,,,0.00,0.00,VWS V14.00,2013-02-05 04:02:00,
2013-02-04 23:07:00,7.0,-0.7,29.89,WNW,298,2.0,3.0,70,0.00,,,0.00,0.00,VWS V14.00,2013-02-05 04:07:00,
2013-02-04 23:12:00,7.0,-0.7,29.89,WNW,298,2.0,3.0,70,0.00,,,0.00,0.00,VWS V14.00,2013-02-05 04:12:00,
2013-02-04 23:17:00,6.9,-0.8,29.89,WNW,298,2.0,4.0,70,0.00,,,0.00,0.00,VWS V14.00,2013-02-05 04:17:00,
2013-02-04 23:22:00,6.8,-0.9,29.89,NW,319,5.0,5.0,70,0.00,,,0.00,0.00,VWS V14.00,2013-02-05 04:22:00,
2013-02-04 23:27:00,6.8,-0.9,29.89,NW,319,3.0,4.0,70,0.00,,,0.00,0.00,VWS V14.00,2013-02-05 04:27:00,
2013-02-04 23:32:00,6.8,-0.6,29.90,NW,319,0.0,0.0,71,0.00,,,0.00,0.00,VWS V14.00,2013-02-05 04:32:00,
2013-02-04 23:37:00,6.7,-0.7,29.89,NW,319,0.0,0.0,71,0.00,,,0.00,0.00,VWS V14.00,2013-02-05 04:37:00,
2013-02-04 23:42:00,6.6,-0.8,29.90,NW,321,5.0,5.0,71,0.00,,,0.00,0.00,VWS V14.00,2013-02-05 04:42:00,
2013-02-04 23:47:00,6.4,-1.0,29.90,NW,321,0.0,1.0,71,0.00,,,0.00,0.00,VWS V14.00,2013-02-05 04:47:00,
2013-02-04 23:52:00,6.2,-1.2,29.91,NE,55,4.0,5.0,71,0.00,,,0.00,0.00,VWS V14.00,2013-02-05 04:52:00,
2013-02-04 23:57:00,6.2,-0.9,29.91,NNE,30,1.0,1.0,72,0.00,,,0.00,0.00,VWS V14.00,2013-02-05 04:57:00,